Tracking 27380 objects as of 6-Jun-2023
HD Live streaming from Space Station
objects crossing your sky now

OPS 4682 DEB

Track OPS 4682 DEB now!
10-day predictions


NORAD ID: 18967
Int'l Code: 1965-027AP
Perigee: 1,265.8 km
Apogee: 1,308.0 km
Inclination: 90.2 °
Period: 111.2 minutes
Semi major axis: 7657 km
RCS: 0.0192 m2 (small)
Launch date: April 3, 1965
Source: United States (US)
Launch site: AIR FORCE WESTERN TEST RANGE (AFWTR)

Note: This is SATELLITE DEBRIS
Your satellite tracking list
Your tracking list is empty




NASA's NSSDC Master Catalog

Two Line Element Set (TLE):
1 18967U 65027AP  23157.26155307 -.00000053  00000-0 -21349-3 0  9990
2 18967  90.2490 345.6101 0027541 168.8612 252.9594 12.95507431675155
Source of the keplerian elements: AFSPC